[[{"header":{"parameterUnit":"m.s-1","parameterCategory":1,"la1":30.2991,"la2":30.254,"lo1":-89.0895,"lo2":-89.0444,"dy":0.0017,"dx":0.0017,"nx":28,"ny":28,"refTime":"2024-02-27T03:00:00:Z","depth":0,"parameterNumber":2,"parameterNumberName":"U-component_of_WINDS"},"data":[0,0,0,0,0,0,0,0,0,0,0,0,0,0,0,0,0,0,0,0,0,0,0,0,0,0,0,0,0,0,0,0,0,0,0,0,0,0,0,0,0,0,0,0,0,0,0,0,0,0,0,0,0,0,0,0,0,0,0.9317,0.9315,0,0.9154,0.9152,0.915,0.9118,0.9119,0.9121,0.9122,0.896,0.8955,0.895,0,0,0,0,0,0,0,0,0,0,0,0,0,0.961,0.9605,0.9317,0.9315,0.9313,0.9154,0.9152,0.915,0.9118,0.9119,0.9121,0.9122,0.8962,0.8956,0.8949,0,0,0,0,0,0,0,0,0,0,0,0,0,0.9469,0.9603,0.9317,0.9278,0.9272,0.9155,0.9152,0.9149,0.9118,0.912,0.9121,0.9123,0.8964,0.8956,0.8948,0.886,0,0,0.8923,0.892,0,0,0,0,0,0,0,0,0.9477,0.9458,0.9285,0.928,0.9274,0.9158,0.9196,0.9052,0.9117,0.9177,0.9122,0.9124,0.9025,0.9012,0.8977,0.8852,0.8845,0.8923,0.8918,0.8914,0.8912,0,0,0,0,0,0,0,0.9486,0.9465,0.9252,0.9283,0.9276,0.9271,0.9253,0.9169,0.9092,0.9172,0.9169,0.915,0.9022,0.8985,0.8973,0.8843,0.8923,0.8916,0.891,0.8907,0.8644,0.8642,0,0,0,0,0,0,0.9502,0.9473,0.9258,0.9248,0.9382,0.9264,0.9244,0.9194,0.9093,0.908,0.9148,0.9149,0.8999,0.8983,0.8968,0.8861,0.8914,0.8906,0.8902,0.8646,0.8644,0.8642,0,0,0,0,0,0,0.9509,0.9483,0.9264,0.9359,0.9331,0.9257,0.9201,0.9189,0.9152,0.9075,0.9063,0.9124,0.8999,0.8979,0.8888,0.8855,0.8903,0.8895,0.8649,0.8646,0.8643,0.8646,0,0,0,0,0,0,0.9517,0.9486,0.9449,0.9359,0.9326,0.9184,0.9198,0.9185,0.9138,0.9137,0.9049,0.9037,0.8999,0.8901,0.888,0.8845,0.8889,0.8652,0.8647,0.8644,0.8648,0.8643,0.8639,0,0,0,0,0,0.9528,0.9456,0.9447,0.9421,0.9278,0.9182,0.9164,0.9121,0.9135,0.9099,0.9051,0.9039,0.8862,0.8891,0.8868,0.883,0.8653,0.8649,0.8644,0.865,0.8644,0.8639,0,0,0,0,0,0,0.9544,0.9443,0.9432,0.9328,0.9264,0.9177,0.913,0.9115,0.9046,0.9049,0.9,0.8981,0.8894,0.8853,0.8887,0.8743,0.8759,0.875,0.8772,0.8765,0.8761,0.8773,0.8882,0,0,0,0,0,0.9535,0.9464,0.938,0.9297,0.9266,0.9204,0.916,0.9133,0.9065,0.9038,0.8983,0.892,0.8851,0.8806,0.8737,0.8643,0.8626,0.8606,0.8601,0.8598,0.859,0.8543,0.8534,0.8627,0.8627,0.8627,0,0,0.9517,0.9453,0.9411,0.9299,0.9246,0.9177,0.9181,0.9105,0.9055,0.9028,0.8938,0.8897,0.8823,0.8732,0.8688,0.8695,0.8561,0.8592,0.8589,0.8584,0.8537,0.8528,0.8521,0.8623,0.8624,0.8624,0,0,0.9448,0.9391,0.9317,0.9265,0.9185,0.9145,0.9129,0.9044,0.9015,0.8925,0.8905,0.8846,0.8726,0.8676,0.8635,0.8554,0.8543,0.8534,0.8509,0.8463,0.8456,0.8449,0.8424,0.8415,0.8526,0.8526,0.8526,0,0.9436,0.9327,0.9282,0.9209,0.9163,0.9135,0.9064,0.9016,0.8918,0.8889,0.8897,0.875,0.8698,0.8597,0.8578,0.8544,0.8526,0.8543,0.846,0.8453,0.8446,0.8422,0.8412,0.8526,0.8526,0.8526,0.8526,0,0.9318,0.9244,0.9195,0.9101,0.905,0.8977,0.8926,0.8879,0.8859,0.882,0.8732,0.867,0.8591,0.8565,0.8543,0.8462,0.8469,0.8469,0.8485,0.8438,0.8414,0.8404,0.8525,0.8525,0.8526,0.8526,0,0,0.9251,0.9138,0.9121,0.908,0.8993,0.8936,0.8866,0.8787,0.8751,0.8686,0.8629,0.8531,0.8532,0.8486,0.8459,0.8419,0.8365,0.8425,0.8423,0.8418,0.8277,0.8278,0.8267,0.8357,0.8355,0.8353,0.8284,0,0.9174,0.9044,0.9005,0.8897,0.8831,0.8808,0.8747,0.8689,0.8652,0.8594,0.8554,0.8486,0.8491,0.8464,0.8423,0.838,0.8336,0.8384,0.8306,0.8304,0.8326,0.8254,0.8254,0.8191,0.8274,0.8272,0.8271,0,0.9065,0.8999,0.8885,0.8811,0.8782,0.8727,0.8656,0.8599,0.8535,0.8512,0.8463,0.8441,0.8371,0.8392,0.8298,0.8332,0.8298,0.8273,0.827,0.8261,0.8285,0.8247,0.817,0.8161,0.8256,0.8257,0.8258,0,0.9032,0.8915,0.8833,0.8798,0.8709,0.8673,0.8634,0.8572,0.853,0.8468,0.8441,0.8373,0.8336,0.8286,0.8248,0.8266,0.8159,0.8175,0.8141,0.8142,0.8119,0.8121,0.8038,0.8095,0.8095,0.8095,0.8096,0,0.895,0.8882,0.8817,0.8767,0.8692,0.865,0.8578,0.8539,0.8485,0.843,0.8406,0.8356,0.8308,0.8253,0.8223,0.8153,0.8135,0.8117,0.8111,0.812,0.8123,0.8098,0.8102,0.8093,0.8094,0.8094,0.8094,0,0.8899,0.8852,0.8762,0.8686,0.8666,0.8615,0.8552,0.8504,0.8469,0.84,0.8381,0.8325,0.8259,0.8217,0.8133,0.8114,0.8037,0.803,0.8058,0.8055,0.8024,0.8028,0.7923,0.7909,0.7974,0.7973,0.7973,0,0.885,0.8798,0.8718,0.8678,0.864,0.8577,0.8534,0.8493,0.845,0.8377,0.8339,0.8272,0.8215,0.8112,0.8066,0.8003,0.7997,0.7964,0.7987,0.8,0.7999,0.8004,0.8,0.7961,0.796,0.796,0.7959,0,0.877,0.8751,0.8689,0.862,0.857,0.8514,0.8459,0.8429,0.8379,0.8333,0.8265,0.8222,0.8138,0.8073,0.8007,0.7971,0.7958,0.7953,0.7942,0.7951,0.7971,0.7963,0.805,0.7955,0.7956,0.7956,0.7956,0.7956,0.872,0.8675,0.8612,0.8546,0.85,0.845,0.8403,0.8363,0.8305,0.8232,0.8212,0.8142,0.8086,0.7996,0.796,0.7908,0.7912,0.7895,0.7892,0.7888,0.789,0.7979,0.7895,0.7895,0.7895,0.7896,0.7896,0,0.8641,0.8601,0.854,0.8464,0.8414,0.8405,0.8345,0.8304,0.8243,0.819,0.8136,0.8062,0.8,0.7951,0.7888,0.7856,0.7849,0.7842,0.7844,0.7837,0.7888,0.7905,0.7848,0.7848,0.7849,0.7849,0.7849,0.7849,0.8594,0.8517,0.8492,0.8395,0.8356,0.8286,0.8253,0.8209,0.8168,0.8085,0.8033,0.8001,0.7952,0.7887,0.7831,0.7819,0.7798,0.7792,0.7779,0.7828,0.7833,0.7838,0.7853,0.7787,0.7787,0.7733,0.7732,0.7732]},{"header":{"parameterUnit":"m.s-1","parameterCategory":1,"la1":30.2991,"la2":30.254,"lo1":-89.0895,"lo2":-89.0444,"dy":0.0017,"dx":0.0017,"nx":28,"ny":28,"refTime":"2024-02-27T03:00:00:Z","depth":0,"parameterNumber":3,"parameterNumberName":"V-component_of_WINDS"},"data":[0,0,0,0,0,0,0,0,0,0,0,0,0,0,0,0,0,0,0,0,0,0,0,0,0,0,0,0,0,0,0,0,0,0,0,0,0,0,0,0,0,0,0,0,0,0,0,0,0,0,0,0,0,0,0,0,0,0,1.8799,1.88,0,1.8963,1.8965,1.8967,1.9002,1.9001,1.9,1.8999,1.9163,1.9168,1.9174,0,0,0,0,0,0,0,0,0,0,0,0,0,1.8511,1.8516,1.8799,1.8801,1.8803,1.8963,1.8965,1.8967,1.9003,1.9001,1.9,1.8998,1.9161,1.9168,1.9174,0,0,0,0,0,0,0,0,0,0,0,0,0,1.8651,1.8518,1.8798,1.884,1.8845,1.8962,1.8965,1.8968,1.9003,1.9001,1.8999,1.8998,1.9159,1.9167,1.9175,1.9261,0,0,1.92,1.9204,0,0,0,0,0,0,0,0,1.8643,1.8662,1.8832,1.8837,1.8843,1.896,1.8924,1.9066,1.9003,1.8943,1.8999,1.8997,1.9097,1.911,1.9145,1.9269,1.9276,1.9201,1.9206,1.921,1.9212,0,0,0,0,0,0,0,1.8634,1.8655,1.8863,1.8834,1.8841,1.8849,1.8867,1.8951,1.9028,1.8948,1.8951,1.897,1.91,1.9137,1.9149,1.9278,1.9201,1.9208,1.9213,1.9216,1.948,1.9481,0,0,0,0,0,0,1.8617,1.8647,1.8858,1.8868,1.8737,1.8855,1.8875,1.8925,1.9027,1.9041,1.8971,1.8971,1.9123,1.9139,1.9155,1.9261,1.9209,1.9217,1.9222,1.9477,1.948,1.9482,0,0,0,0,0,0,1.8611,1.8636,1.8852,1.8759,1.8787,1.8862,1.8917,1.8929,1.8966,1.9045,1.9058,1.8995,1.9123,1.9143,1.9234,1.9267,1.9221,1.9228,1.9475,1.9478,1.9481,1.9476,0,0,0,0,0,0,1.8603,1.8633,1.8668,1.8759,1.8791,1.893,1.8919,1.8933,1.898,1.8981,1.9071,1.9084,1.9123,1.9222,1.9242,1.9278,1.9235,1.9472,1.9476,1.948,1.9473,1.9478,1.9482,0,0,0,0,0,1.8592,1.8659,1.867,1.8695,1.8837,1.8932,1.895,1.8995,1.8983,1.9018,1.9068,1.9081,1.926,1.9231,1.9254,1.9293,1.9471,1.9475,1.948,1.9471,1.9477,1.9482,0,0,0,0,0,0,1.8569,1.8672,1.8685,1.8784,1.8849,1.8938,1.8983,1.9,1.907,1.9068,1.9119,1.9139,1.9226,1.9269,1.9234,1.938,1.9365,1.9374,1.935,1.9356,1.9361,1.9349,1.9242,0,0,0,0,0,1.8576,1.8646,1.8732,1.8811,1.8843,1.8907,1.8951,1.8979,1.9048,1.9076,1.9133,1.9198,1.9269,1.9315,1.9385,1.9479,1.9498,1.9517,1.9521,1.9525,1.9532,1.9584,1.9593,1.9497,1.9497,1.9497,0,0,1.859,1.8655,1.8696,1.8808,1.8862,1.8932,1.893,1.9005,1.9057,1.9087,1.9177,1.9221,1.9297,1.9389,1.9433,1.9427,1.9563,1.9531,1.9533,1.9539,1.959,1.9598,1.9606,1.9501,1.95,1.95,0,0,1.8652,1.8709,1.878,1.8834,1.8916,1.8959,1.8975,1.9062,1.9092,1.9184,1.9207,1.9269,1.939,1.9444,1.9486,1.9566,1.958,1.9587,1.9611,1.9661,1.9668,1.9675,1.9703,1.9713,1.9594,1.9595,1.9595,0,1.8659,1.8767,1.8815,1.8888,1.8936,1.8967,1.9039,1.9088,1.9188,1.922,1.9212,1.9364,1.9418,1.9523,1.9542,1.9576,1.9596,1.9578,1.9664,1.9671,1.9678,1.9705,1.9716,1.9595,1.9595,1.9595,1.9595,0,1.8771,1.8846,1.8893,1.899,1.9043,1.9115,1.9172,1.9219,1.9243,1.9285,1.9376,1.9441,1.9524,1.9551,1.9575,1.9659,1.9653,1.9654,1.9639,1.9687,1.9713,1.9724,1.9595,1.9595,1.9595,1.9595,0,0,1.8824,1.8946,1.8962,1.9006,1.9098,1.9156,1.9228,1.9311,1.935,1.9417,1.9478,1.958,1.9581,1.9629,1.9659,1.9702,1.976,1.9698,1.97,1.9707,1.9856,1.9855,1.9866,1.977,1.9772,1.9774,1.9849,0,1.8897,1.903,1.9073,1.9183,1.9251,1.9281,1.9344,1.9406,1.9447,1.9509,1.9554,1.9625,1.9621,1.9651,1.9695,1.9744,1.9791,1.9739,1.9826,1.9828,1.9806,1.988,1.988,1.9948,1.986,1.9862,1.9863,0,1.9,1.907,1.9186,1.9269,1.9299,1.9355,1.9433,1.9493,1.9563,1.959,1.9643,1.9669,1.9744,1.9724,1.9828,1.9791,1.9829,1.9858,1.9862,1.9872,1.9849,1.9892,1.9971,1.9981,1.988,1.9878,1.9877,0,1.9026,1.9149,1.9234,1.9271,1.9369,1.9408,1.945,1.9519,1.9565,1.9633,1.9663,1.9738,1.9778,1.9835,1.9879,1.9861,1.9978,1.9963,2.0001,2.0,2.0025,2.0023,2.0111,2.0049,2.0049,2.0049,2.0049,0,1.9102,1.9172,1.9247,1.93,1.9378,1.9427,1.9503,1.9547,1.9607,1.9668,1.9697,1.9752,1.9808,1.987,1.9905,1.9985,2.0003,2.0025,2.0034,2.0023,2.002,2.0049,2.0045,2.0052,2.0051,2.0051,2.005,0,1.9145,1.9199,1.9294,1.9379,1.9402,1.9456,1.9528,1.9579,1.9621,1.9696,1.9717,1.9782,1.9857,1.9907,2.0002,2.0025,2.0111,2.0119,2.0088,2.0092,2.0128,2.0124,2.0239,2.0256,2.0182,2.0182,2.0183,0,1.9191,1.9245,1.9337,1.938,1.9423,1.9492,1.9539,1.9588,1.9636,1.9719,1.976,1.9837,1.9901,2.0019,2.0073,2.0146,2.0155,2.019,2.0166,2.0153,2.0155,2.0152,2.0157,2.0194,2.0194,2.0195,2.0195,0,1.9265,1.9289,1.9357,1.9434,1.949,1.9553,1.9615,1.9648,1.9708,1.976,1.9837,1.9887,1.9984,2.006,2.0137,2.0179,2.0197,2.0202,2.0215,2.0205,2.0185,2.0196,2.0099,2.02,2.0199,2.0199,2.0199,2.0198,1.9311,1.9361,1.9433,1.9507,1.9559,1.9617,1.9669,1.9717,1.9783,1.9868,1.9892,1.9972,2.0039,2.0145,2.0188,2.025,2.0247,2.0265,2.027,2.0274,2.0274,2.0174,2.0265,2.0264,2.0264,2.0264,2.0264,0,1.9387,1.9435,1.9503,1.959,1.9648,1.966,1.973,1.9777,1.9848,1.991,1.9973,2.0061,2.0134,2.0194,2.0269,2.0307,2.0317,2.0325,2.0323,2.0332,2.0273,2.0255,2.0315,2.0315,2.0315,2.0315,2.0315,2.0315,1.9433,1.9518,1.955,1.966,1.9706,1.9787,1.9825,1.9878,1.9927,2.0025,2.0086,2.0125,2.0186,2.0265,2.0332,2.0348,2.0374,2.038,2.0397,2.0342,2.0336,2.033,2.0313,2.0385,2.0385,2.0451,2.0452,2.0452]}]]